HS5XHC-1 Weather Reports


time (UTC)temp
F
wind
direction
speed
knots
gust
knots
rain 1hr
in
rain 24hr
in
rain mn
in
humidity
%
barometer
mb
20260508025830 80 0 0.0 0.0 0.00 0.00 0.00 59 970.0
20260508024806 79 0 0.0 0.0 0.00 0.00 0.00 60 970.0
20260508023742 79 0 0.0 0.0 0.00 0.00 0.00 61 970.0
20260508022718 79 0 0.0 0.0 0.00 0.00 0.00 61 970.0
20260508021654 79 0 0.0 0.0 0.00 0.00 0.00 62 970.0
20260508020630 79 0 0.0 0.0 0.00 0.00 0.00 62 970.0
20260508015606 79 0 0.0 0.0 0.00 0.00 0.00 63 970.0
20260508014542 79 0 0.0 0.0 0.00 0.00 0.00 62 970.0
20260508013518 79 0 0.0 0.0 0.00 0.00 0.00 63 970.0
20260508012454 78 0 0.0 0.0 0.00 0.00 0.00 65 970.0
20260508011430 78 0 0.0 0.0 0.00 0.00 0.00 66 970.0
20260508010406 78 0 0.0 0.0 0.00 0.00 0.00 69 970.0
20260508005342 78 0 0.0 0.0 0.00 0.00 0.00 68 970.0
20260508004318 78 0 0.0 0.0 0.00 0.00 0.00 68 970.0
20260508003253 78 0 0.0 0.0 0.00 0.00 0.00 67 970.0
20260508002229 78 0 0.0 0.0 0.00 0.00 0.00 66 969.0
20260508001205 78 0 0.0 0.0 0.00 0.00 0.00 66 969.0
20260508000141 79 0 0.0 0.0 0.00 0.00 0.00 63 969.0
20260507235117 80 0 0.0 0.0 0.00 0.00 0.00 60 969.0
20260507234052 82 0 0.0 0.0 0.00 0.00 0.00 58 969.0
20260507233028 82 0 0.0 0.0 0.00 0.00 0.00 57 969.0
20260507232004 81 0 0.0 0.0 0.00 0.00 0.00 59 969.0
20260507230941 82 0 0.0 0.0 0.00 0.00 0.00 58 968.0
20260507225917 81 0 0.0 0.0 0.00 0.00 0.00 58 968.0
20260507224853 82 0 0.0 0.0 0.00 0.00 0.00 57 968.0
20260507223829 83 0 0.0 0.0 0.00 0.00 0.00 56 968.0
20260507222805 82 0 0.0 0.0 0.00 0.00 0.00 57 968.0
20260507221741 82 0 0.0 0.0 0.00 0.00 0.00 59 968.0
20260507220717 83 0 0.0 0.0 0.00 0.00 0.00 58 968.0
20260507215653 83 0 0.0 0.0 0.00 0.00 0.00 58 968.0
20260507214629 81 0 0.0 0.0 0.00 0.00 0.00 61 968.0
20260507213604 82 0 0.0 0.0 0.00 0.00 0.00 60 968.0
20260507212541 81 0 0.0 0.0 0.00 0.00 0.00 61 968.0
20260507211517 80 0 0.0 0.0 0.00 0.00 0.00 63 968.0
20260507210453 79 0 0.0 0.0 0.00 0.00 0.00 67 968.0
20260507205429 78 0 0.0 0.0 0.00 0.00 0.00 67 968.0
20260507204405 78 0 0.0 0.0 0.00 0.00 0.00 67 968.0
20260507203341 80 0 0.0 0.0 0.00 0.00 0.00 62 968.0
20260507202317 81 0 0.0 0.0 0.00 0.00 0.00 61 968.0
20260507201254 81 0 0.0 0.0 0.00 0.00 0.00 60 968.0
20260507200229 80 0 0.0 0.0 0.00 0.00 0.00 64 968.0
20260507195830 79 0 0.0 0.0 0.00 0.00 0.00 66 968.0
20260507194806 79 0 0.0 0.0 0.00 0.00 0.00 68 968.0
20260507193742 78 0 0.0 0.0 0.00 0.00 0.00 67 968.0
20260507192718 78 0 0.0 0.0 0.00 0.00 0.00 68 968.0
20260507191654 78 0 0.0 0.0 0.00 0.00 0.00 68 968.0
20260507190630 79 0 0.0 0.0 0.00 0.00 0.00 65 968.0
20260507185606 80 0 0.0 0.0 0.00 0.00 0.00 66 968.0
20260507184542 79 0 0.0 0.0 0.00 0.00 0.00 67 968.0
20260507183518 82 0 0.0 0.0 0.00 0.00 0.00 62 968.0
20260507182454 79 0 0.0 0.0 0.00 0.00 0.00 68 968.0
20260507181430 78 0 0.0 0.0 0.00 0.00 0.00 70 968.0
20260507180406 79 0 0.0 0.0 0.00 0.00 0.00 66 968.0
20260507175342 81 0 0.0 0.0 0.00 0.00 0.00 62 968.0
20260507174318 89 0 0.0 0.0 0.00 0.00 0.00 46 967.0
20260507173254 89 0 0.0 0.0 0.00 0.00 0.00 46 967.0
20260507172230 91 0 0.0 0.0 0.00 0.00 0.00 42 967.0
20260507171206 90 0 0.0 0.0 0.00 0.00 0.00 43 967.0
20260507170114 91 0 0.0 0.0 0.00 0.00 0.00 41 967.0
20260507165050 91 0 0.0 0.0 0.00 0.00 0.00 41 967.0
20260507164026 91 0 0.0 0.0 0.00 0.00 0.00 41 967.0
20260507163002 92 0 0.0 0.0 0.00 0.00 0.00 40 967.0
20260507161938 92 0 0.0 0.0 0.00 0.00 0.00 41 967.0
20260507160914 92 0 0.0 0.0 0.00 0.00 0.00 40 967.0
20260507155850 92 0 0.0 0.0 0.00 0.00 0.00 40 967.0
20260507154826 91 0 0.0 0.0 0.00 0.00 0.00 41 967.0
20260507153802 91 0 0.0 0.0 0.00 0.00 0.00 41 967.0
20260507152738 93 0 0.0 0.0 0.00 0.00 0.00 38 967.0
20260507151714 93 0 0.0 0.0 0.00 0.00 0.00 37 966.0
20260507150650 93 0 0.0 0.0 0.00 0.00 0.00 37 966.0
20260507145626 93 0 0.0 0.0 0.00 0.00 0.00 37 966.0
20260507144602 94 0 0.0 0.0 0.00 0.00 0.00 37 965.0
20260507143539 93 0 0.0 0.0 0.00 0.00 0.00 38 965.0
20260507142515 93 0 0.0 0.0 0.00 0.00 0.00 38 965.0
20260507141450 93 0 0.0 0.0 0.00 0.00 0.00 38 965.0
20260507140427 94 0 0.0 0.0 0.00 0.00 0.00 38 965.0
20260507135403 94 0 0.0 0.0 0.00 0.00 0.00 38 965.0
20260507134339 94 0 0.0 0.0 0.00 0.00 0.00 37 964.0
20260507133315 95 0 0.0 0.0 0.00 0.00 0.00 37 964.0
20260507132251 95 0 0.0 0.0 0.00 0.00 0.00 38 964.0
20260507131227 96 0 0.0 0.0 0.00 0.00 0.00 35 964.0
20260507130202 96 0 0.0 0.0 0.00 0.00 0.00 33 964.0
20260507125138 97 0 0.0 0.0 0.00 0.00 0.00 31 964.0
20260507124114 96 0 0.0 0.0 0.00 0.00 0.00 32 964.0
20260507123050 97 0 0.0 0.0 0.00 0.00 0.00 32 964.0
20260507122025 97 0 0.0 0.0 0.00 0.00 0.00 32 963.0
20260507121001 97 0 0.0 0.0 0.00 0.00 0.00 32 963.0
20260507115937 97 0 0.0 0.0 0.00 0.00 0.00 32 963.0
20260507114913 98 0 0.0 0.0 0.00 0.00 0.00 31 963.0
20260507113847 98 0 0.0 0.0 0.00 0.00 0.00 30 963.0
20260507112823 99 0 0.0 0.0 0.00 0.00 0.00 30 962.0
20260507111759 99 0 0.0 0.0 0.00 0.00 0.00 30 962.0
20260507110735 99 0 0.0 0.0 0.00 0.00 0.00 31 962.0
20260507105710 100 0 0.0 0.0 0.00 0.00 0.00 30 962.0
20260507104646 100 0 0.0 0.0 0.00 0.00 0.00 30 962.0
20260507103621 101 0 0.0 0.0 0.00 0.00 0.00 30 962.0
20260507102557 101 0 0.0 0.0 0.00 0.00 0.00 29 962.0
20260507101533 101 0 0.0 0.0 0.00 0.00 0.00 27 961.0
20260507100509 100 0 0.0 0.0 0.00 0.00 0.00 27 961.0
20260507095445 100 0 0.0 0.0 0.00 0.00 0.00 30 961.0
20260507094421 100 0 0.0 0.0 0.00 0.00 0.00 31 962.0
20260507093357 100 0 0.0 0.0 0.00 0.00 0.00 28 962.0
20260507092333 100 0 0.0 0.0 0.00 0.00 0.00 27 962.0
20260507091309 101 0 0.0 0.0 0.00 0.00 0.00 26 962.0
20260507090245 101 0 0.0 0.0 0.00 0.00 0.00 25 962.0
20260507085221 101 0 0.0 0.0 0.00 0.00 0.00 28 962.0
20260507084156 101 0 0.0 0.0 0.00 0.00 0.00 25 962.0
20260507083132 101 0 0.0 0.0 0.00 0.00 0.00 26 962.0
20260507082108 101 0 0.0 0.0 0.00 0.00 0.00 29 962.0
20260507081044 101 0 0.0 0.0 0.00 0.00 0.00 28 963.0
20260507080020 100 0 0.0 0.0 0.00 0.00 0.00 30 963.0
20260507074956 100 0 0.0 0.0 0.00 0.00 0.00 31 963.0
20260507073933 100 0 0.0 0.0 0.00 0.00 0.00 33 963.0
20260507072908 100 0 0.0 0.0 0.00 0.00 0.00 32 963.0
20260507071844 99 0 0.0 0.0 0.00 0.00 0.00 34 963.0
20260507070820 98 0 0.0 0.0 0.00 0.00 0.00 33 964.0
20260507065756 99 0 0.0 0.0 0.00 0.00 0.00 35 964.0
20260507064731 99 0 0.0 0.0 0.00 0.00 0.00 33 964.0
20260507063707 98 0 0.0 0.0 0.00 0.00 0.00 33 964.0
20260507062643 99 0 0.0 0.0 0.00 0.00 0.00 32 964.0
20260507061618 98 0 0.0 0.0 0.00 0.00 0.00 37 965.0
20260507060554 97 0 0.0 0.0 0.00 0.00 0.00 33 965.0
20260507055530 97 0 0.0 0.0 0.00 0.00 0.00 35 965.0
20260507054507 96 0 0.0 0.0 0.00 0.00 0.00 36 966.0
20260507053442 96 0 0.0 0.0 0.00 0.00 0.00 36 966.0
20260507052418 96 0 0.0 0.0 0.00 0.00 0.00 38 966.0
20260507051354 95 0 0.0 0.0 0.00 0.00 0.00 39 966.0
20260507050330 96 0 0.0 0.0 0.00 0.00 0.00 40 966.0
20260507045307 95 0 0.0 0.0 0.00 0.00 0.00 42 967.0
20260507044242 94 0 0.0 0.0 0.00 0.00 0.00 41 967.0
20260507043217 93 0 0.0 0.0 0.00 0.00 0.00 42 967.0
20260507042154 93 0 0.0 0.0 0.00 0.00 0.00 42 967.0
20260507041130 92 0 0.0 0.0 0.00 0.00 0.00 42 967.0
20260507040106 92 0 0.0 0.0 0.00 0.00 0.00 41 967.0
20260507035042 92 0 0.0 0.0 0.00 0.00 0.00 43 967.0
20260507034018 91 0 0.0 0.0 0.00 0.00 0.00 44 967.0
20260507032954 91 0 0.0 0.0 0.00 0.00 0.00 47 967.0
20260507031930 91 0 0.0 0.0 0.00 0.00 0.00 46 967.0
20260507030905 90 0 0.0 0.0 0.00 0.00 0.00 48 967.0